Regional Weather Roundup
Issued by NWS

Home | Current Version | Previous Version | Graphics & Text | Print | Product List | Glossary On
Versions: 1 2 3 4 5 6 7 8 9 10 11 12 13 14 15 16 17 18 19 20 21 22 23 24 25 26 27 28
000
ASUS45 KCYS 260910
RWRWY

WYOMING REGIONAL WEATHER ROUNDUP
NATIONAL WEATHER SERVICE CHEYENNE WY
200 AM MST SUN FEB 26 2017

NOTE:  "FAIR" INDICATES FEW OR NO CLOUDS BELOW 12,000 FEET
WITH NO SIGNIFICANT WEATHER AND/OR OBSTRUCTIONS TO VISIBILITY.

WYZ001-261000-
YELLOWSTONE NATIONAL PARK

CITY           SKY/WX    TMP DP  RH WIND       PRES   REMARKS
LK YELLOWSTONE   N/A      6   2  83 CALM      29.74S
W YELLOWSTONE  NOT AVBL

$$
WYZ002>013-054>058-071-098>099-261000-
NORTHERN WYOMING

CITY           SKY/WX    TMP DP  RH WIND       PRES   REMARKS
JACKSON        CLOUDY    12  10  92 SW6       29.81S WCI   3
CODY           FAIR      22   2  42 W21G35    29.67F WCI   6
GREYBULL       FAIR      22  10  60 E6        29.75S WCI  14
WORLAND        FAIR      14   9  80 SE8       29.74S WCI   3
SHERIDAN       FAIR      14   7  73 SE14      29.70R WCI  -1
BUFFALO        FAIR      13  -1  54 W8        29.68R WCI   2
GILLETTE       MOCLDY    18   9  68 SW15      29.70R WCI   4
HULETT         CLOUDY    25  14  63 SW8       29.70R WCI  16
NEWCASTLE      FAIR      10   9  92 E8        29.75R WCI  -1

$$
WYZ014>020-022>026-101>103-261000-
CENTRAL WYOMING

CITY           SKY/WX    TMP DP  RH WIND       PRES   REMARKS
BIG PINEY      FAIR     -11 -15  82 VRB5      29.82F WCI -23
PINEDALE       FAIR      -8 -13  77 NW8       29.82S WCI -23
DUBOIS         FAIR       7  -4  61 NW23      29.70S WCI -14
LANDER         FAIR       4  -7  60 S3        29.72F
RIVERTON       FAIR      11  -3  53 W16       29.72F WCI  -6
CASPER         FAIR      12  -1  56 SW18      29.74S WCI  -6
DOUGLAS        FAIR       2  -5  72 NW7       29.75S WCI -11

$$
WYZ021-027>030-104>119-261000-
SOUTHERN WYOMING

CITY           SKY/WX    TMP DP  RH WIND       PRES   REMARKS
EVANSTON       FAIR       4  -1  80 SW10      29.86R WCI -11
KEMMERER         N/A      1  -4  78 SW5       29.83S WCI  -8
FORT BRIDGER   FAIR       7   1  78 SW13      29.87F WCI  -9
ROCK SPRINGS   FAIR       7   2  80 W20       29.83F WCI -13
DIXON            N/A     -1  -5  82 CALM      29.91R
RAWLINS        FAIR       9   2  73 W17       29.79R WCI  -9
SARATOGA       FAIR      10   3  72 W12       29.82R WCI  -4
LARAMIE        FAIR       8  -2  63 W18       29.73R WCI -11
CHEYENNE       FAIR      12   0  58 W10       29.75F WCI  -1
TORRINGTON     FAIR      18   5  57 W17       29.79R WCI   3
PINE BLUFFS    FAIR       9   1  72 MISG      29.80F

$$




USA.gov is the U.S. government's official web portal to all federal, state and local government web resources and services.